Home   Weather   Coquitlam   Past weeks

Flag for Canada Past Weather in Coquitlam, British Columbia, Canada — Yesterday and Last 2 Weeks

Now
54 °F

Cool.


Feels Like: 52 °F
Forecast: 45 / 55 °F
Wind: 7 mph from Northeast

Location: P. Meadows Coastal Station

Current Time: Apr 25, 2017 at 3:24:46 pm

Latest Report: Apr 25, 2017 at 3:00 pm


Visibility: N/A

Pressure: 29.87 "Hg

Humidity: 72%

Dew Point: 45 °F

Location of CoquitlamLocation

Past Weather in Coquitlam — Graph

°F

Coquitlam Temperature Yesterday

Maximum temperature yesterday: 60 °F (at 6:00 pm)
Minimum temperature yesterday: 45 °F (at 5:00 am)
Average temperature yesterday: 51 °F

High & Low Weather Summary for the Past Weeks

 TemperatureHumidityPressure
High68 °F (Apr 21, 6:00 pm)100% (Apr 23, 4:00 am)30.43 "Hg (Apr 23, 4:00 am)
Low36 °F (Apr 16, 5:00 am)26% (Apr 21, 6:00 pm)29.63 "Hg (Apr 12, 11:00 pm)
Average50 °F76%29.98 "Hg
* Reported Apr 10 2:00 pm — Apr 25 2:00 pm, Coquitlam, Weather by CustomWeather, © 2017

Note: Actual official high and low records may vary slightly from our data, if they occured in-between our weather recording intervals... More about our weather records

Advertising

Coquitlam Weather History for the Previous 24 Hours

Scroll right to see more
 ConditionsComfort  
Time TempWeatherWind HumidityBarometerVisibility
2:00 pm
Tue, Apr 25
55 °FCool.3 mph62%29.89 "HgN/A
1:00 pm55 °FRefreshingly cool.2 mph59%29.91 "HgN/A
12:00 pm54 °FCool.6 mph63%29.93 "HgN/A
11:00 am52 °FCool.6 mph69%29.93 "HgN/A
10:00 am51 °FCool.3 mph78%29.92 "HgN/A
9:00 am50 °FCool.2 mph82%29.93 "HgN/A
8:00 am50 °FCool.1 mph83%29.94 "HgN/A
7:00 am50 °FCool.2 mph83%29.93 "HgN/A
6:00 am50 °FCool.3 mph83%29.92 "HgN/A
5:00 am49 °FCool.3 mph85%29.92 "HgN/A
4:00 am50 °FCool.5 mph82%29.91 "HgN/A
3:00 am49 °FCool.2 mph83%29.91 "HgN/A
2:00 am50 °FCool.3 mph86%29.90 "HgN/A
1:00 am50 °FCool.2 mph84%29.90 "HgN/A
12:00 am49 °FCool.2 mph86%29.88 "HgN/A
11:00 pm
Mon, Apr 24
49 °FCool.2 mph86%29.86 "HgN/A
10:00 pm50 °FCool.1 mph83%29.83 "HgN/A
9:00 pm49 °FCool.1 mph83%29.81 "HgN/A
8:00 pm56 °FCool.5 mph62%29.78 "HgN/A
7:00 pm58 °FRefreshingly cool.7 mph58%29.77 "HgN/A
6:00 pm60 °FRefreshingly cool.8 mph56%29.76 "HgN/A
5:00 pm59 °FRefreshingly cool.9 mph59%29.75 "HgN/A
4:00 pm58 °FRefreshingly cool.9 mph58%29.75 "HgN/A
3:00 pm58 °FRefreshingly cool.9 mph55%29.75 "HgN/A
Weather by CustomWeather, © 2017

See weather overviewHow to use our weather pages